Weather History for KDKR - April, 2013

Change the Weather History Date:

Wednesday, April 3, 2013

  Actual Average (KLFK) Record (KLFK)
Temperature  
Mean Temperature 56 °F 64 °F  
Max Temperature 64 °F 76 °F 89 °F (1918)
Min Temperature 48 °F 52 °F 30 °F (1915)
Degree Days  
Heating Degree Days 9 4  
Month to date heating degree days 12  
Since 1 July heating degree days 1856  
Cooling Degree Days 0 3  
Month to date cooling degree days 7  
Year to date cooling degree days 67  
Growing Degree Days 6 (Base 50)    
Moisture  
Dew Point 48 °F    
Average Humidity 87    
Maximum Humidity 100    
Minimum Humidity 82    
Precipitation  
Precipitation 0.05 in 0.10 in 1.10 in (1919)
Month to date precipitation 0.29  
Year to date precipitation 12.12  
Snow  
Snow 0.00 in - - ()
Month to date snowfall  
Since 1 July snowfall  
Snow Depth -    
Sea Level Pressure  
Sea Level Pressure 30.03 in    
Wind  
Wind Speed 11 mph (NE)    
Max Wind Speed 21 mph    
Max Gust Speed 25 mph    
Visibility 9 miles    
Events Rain , Thunderstorm    
T = Trace of Precipitation, MM = Missing Value Source: NWS Daily Summary

Daily Weather History Graph

Daily Weather History Graph

Search for Another Location

Airport or City:

Trip Planner

Search our weather history database for the weather conditions in past years. The results will help you decide how hot, cold, wet, or windy it might be!

Date:

Astronomy

Apr. 03, 2013 Rise Set
Actual Time 7:07 AM CDT 7:42 PM CDT
Civil Twilight 6:43 AM CDT 8:06 PM CDT
Nautical Twilight 6:14 AM CDT 8:35 PM CDT
Astronomical Twilight 5:45 AM CDT 9:05 PM CDT
Moon 2:24 AM CDT (4/3) 1:19 PM CDT (4/3)
Length of Visible Light 13h 23m
Length of Day
12h 34m
Last Quarter, 44% of the Moon is Illuminated
Apr 3
Last Quarter
Apr 10
New
Apr 18
First Quarter
Apr 25
Full
May 2
Last Quarter

Hourly Weather History & Observations

Time (CDT) Temp. Dew Point Humidity Pressure Visibility Wind Dir Wind Speed Gust Speed Precip Events Conditions
12:15 AM 64.4 °F 62.6 °F 94% 29.90 in 5.0 mi East 11.5 mph 21.9 mph 0.01 in   Light Drizzle
12:35 AM 62.6 °F 62.6 °F 100% 29.88 in 8.0 mi ESE 11.5 mph 21.9 mph 0.01 in Thunderstorm Scattered Clouds
12:55 AM 62.6 °F 62.6 °F 100% 29.91 in 10.0 mi NNE 6.9 mph - 0.01 in   Scattered Clouds
1:15 AM 62.6 °F 62.6 °F 100% 29.92 in 9.0 mi North 8.1 mph - N/A   Overcast
1:55 AM 64.4 °F 62.6 °F 94% 29.91 in 10.0 mi NE 8.1 mph - N/A   Overcast
2:15 AM 62.6 °F 59.0 °F 88% 29.93 in 10.0 mi NE 19.6 mph 24.2 mph 0.01 in   Overcast
2:35 AM 57.2 °F 53.6 °F 88% 29.95 in 10.0 mi NNE 17.3 mph 23.0 mph 0.01 in   Overcast
2:55 AM 53.6 °F 51.8 °F 94% 29.98 in 10.0 mi NNE 12.7 mph 23.0 mph 0.01 in   Overcast
3:15 AM 53.6 °F 50.0 °F 88% 29.99 in 10.0 mi North 12.7 mph 16.1 mph N/A   Overcast
3:35 AM 51.8 °F 48.2 °F 88% 30.00 in 10.0 mi North 8.1 mph - N/A   Overcast
3:55 AM 51.8 °F 48.2 °F 88% 30.01 in 10.0 mi NNE 8.1 mph - N/A   Overcast
4:15 AM 51.8 °F 46.4 °F 82% 30.00 in 10.0 mi NE 15.0 mph - N/A   Overcast
4:35 AM 51.8 °F 46.4 °F 82% 29.98 in 10.0 mi NE 13.8 mph - N/A   Overcast
4:55 AM 51.8 °F 48.2 °F 88% 29.96 in 10.0 mi NE 12.7 mph 18.4 mph N/A   Overcast
5:15 AM 51.8 °F 48.2 °F 88% 29.94 in 10.0 mi NE 13.8 mph - N/A   Overcast
5:35 AM 51.8 °F 48.2 °F 88% 29.92 in 10.0 mi NE 11.5 mph - N/A   Overcast
5:55 AM 51.8 °F 48.2 °F 88% 29.93 in 10.0 mi NE 12.7 mph - N/A   Mostly Cloudy
6:15 AM 51.8 °F 48.2 °F 88% 29.92 in 10.0 mi NE 13.8 mph 19.6 mph N/A   Overcast
6:35 AM 50.0 °F 46.4 °F 87% 29.97 in 10.0 mi NE 12.7 mph 17.3 mph N/A   Overcast
6:55 AM 50.0 °F 46.4 °F 87% 30.00 in 10.0 mi NNE 10.4 mph - N/A Rain Light Rain
7:15 AM 50.0 °F 46.4 °F 87% 30.02 in 8.0 mi North 9.2 mph - N/A Rain Light Rain
7:35 AM 48.2 °F 46.4 °F 93% 30.06 in 5.0 mi North 8.1 mph - 0.01 in   Light Drizzle
7:55 AM 48.2 °F 46.4 °F 93% 30.06 in 5.0 mi NNE 8.1 mph - 0.02 in Rain Light Rain
8:15 AM 48.2 °F 46.4 °F 93% 30.02 in 4.0 mi NE 15.0 mph 21.9 mph 0.01 in Rain Light Rain
8:35 AM 48.2 °F 46.4 °F 93% 30.04 in 8.0 mi NNE 17.3 mph 21.9 mph 0.01 in   Mostly Cloudy
8:55 AM 48.2 °F 46.4 °F 93% 30.03 in 9.0 mi NE 20.7 mph 25.3 mph 0.01 in   Mostly Cloudy
9:15 AM 48.2 °F 46.4 °F 93% 30.04 in 9.0 mi NE 13.8 mph 18.4 mph N/A   Mostly Cloudy
9:35 AM 50.0 °F 46.4 °F 87% 30.05 in 10.0 mi NE 12.7 mph 21.9 mph N/A   Overcast
9:55 AM 51.8 °F 48.2 °F 88% 30.04 in 10.0 mi NE 12.7 mph 21.9 mph N/A   Mostly Cloudy
10:15 AM 51.8 °F 46.4 °F 82% 30.05 in 10.0 mi NE 12.7 mph 20.7 mph N/A   Overcast
10:35 AM 51.8 °F 46.4 °F 82% 30.05 in 10.0 mi ENE 12.7 mph 18.4 mph N/A   Overcast
10:55 AM 51.8 °F 48.2 °F 88% 30.03 in 10.0 mi East 10.4 mph - N/A   Overcast
11:15 AM 53.6 °F 48.2 °F 82% 30.06 in 10.0 mi East 6.9 mph - N/A   Overcast
11:35 AM 53.6 °F 48.2 °F 82% 30.07 in 10.0 mi NE 3.5 mph - N/A   Overcast
11:55 AM 53.6 °F 48.2 °F 82% 30.08 in 10.0 mi North 5.8 mph - N/A   Overcast
12:15 PM 53.6 °F 48.2 °F 82% 30.08 in 10.0 mi NE 8.1 mph - N/A   Overcast
12:35 PM 53.6 °F 48.2 °F 82% 30.08 in 10.0 mi NE 8.1 mph - N/A   Overcast
12:55 PM 53.6 °F 48.2 °F 82% 30.06 in 10.0 mi NNE 10.4 mph - N/A   Overcast
1:15 PM 53.6 °F 48.2 °F 82% 30.05 in 10.0 mi NNE 11.5 mph - N/A   Overcast
1:35 PM 53.6 °F 48.2 °F 82% 30.04 in 10.0 mi NE 12.7 mph - N/A   Overcast
1:55 PM 53.6 °F 48.2 °F 82% 30.05 in 10.0 mi NE 12.7 mph - N/A   Overcast
2:15 PM 53.6 °F 48.2 °F 82% 30.05 in 10.0 mi NE 10.4 mph - N/A   Overcast
2:35 PM 51.8 °F 48.2 °F 88% 30.05 in 10.0 mi NNE 13.8 mph - N/A   Overcast
2:55 PM 51.8 °F 48.2 °F 88% 30.06 in 10.0 mi NNE 10.4 mph - N/A   Overcast
3:15 PM 51.8 °F 48.2 °F 88% 30.06 in 10.0 mi North 8.1 mph - N/A   Overcast
3:35 PM 51.8 °F 46.4 °F 82% 30.05 in 10.0 mi NNE 12.7 mph - N/A   Overcast
3:55 PM 51.8 °F 46.4 °F 82% 30.05 in 10.0 mi NE 8.1 mph - N/A   Overcast
4:15 PM 51.8 °F 46.4 °F 82% 30.03 in 9.0 mi NE 10.4 mph - N/A   Overcast
4:35 PM 51.8 °F 46.4 °F 82% 30.01 in 10.0 mi NE 13.8 mph 18.4 mph N/A   Overcast
4:55 PM 51.8 °F 46.4 °F 82% 30.00 in 10.0 mi NE 13.8 mph - N/A   Overcast
5:15 PM 51.8 °F 46.4 °F 82% 30.01 in 10.0 mi NE 11.5 mph 17.3 mph N/A   Overcast
5:35 PM 51.8 °F 46.4 °F 82% 30.02 in 10.0 mi NNE 11.5 mph 17.3 mph N/A   Overcast
5:55 PM 51.8 °F 46.4 °F 82% 30.03 in 10.0 mi North 9.2 mph - N/A   Overcast
6:15 PM 51.8 °F 46.4 °F 82% 30.03 in 10.0 mi NNE 10.4 mph - N/A   Overcast
6:35 PM 51.8 °F 46.4 °F 82% 30.02 in 10.0 mi NE 11.5 mph - N/A   Overcast
6:55 PM 50.0 °F 46.4 °F 87% 30.04 in 10.0 mi NNE 12.7 mph 16.1 mph N/A   Overcast
7:15 PM 50.0 °F 46.4 °F 87% 30.05 in 9.0 mi NNE 11.5 mph - N/A   Overcast
7:35 PM 48.2 °F 46.4 °F 93% 30.07 in 6.0 mi North 6.9 mph - N/A   Overcast
7:55 PM 50.0 °F 46.4 °F 87% 30.09 in 9.0 mi North 3.5 mph - N/A   Overcast
8:15 PM 48.2 °F 44.6 °F 87% 30.10 in 8.0 mi North 5.8 mph - N/A   Overcast
8:35 PM 48.2 °F 44.6 °F 87% 30.11 in 10.0 mi North 4.6 mph - N/A   Overcast
8:55 PM 48.2 °F 44.6 °F 87% 30.12 in 10.0 mi NE 10.4 mph - N/A   Overcast
9:15 PM 48.2 °F 44.6 °F 87% 30.12 in 6.0 mi NE 6.9 mph - N/A   Overcast
9:35 PM 48.2 °F 44.6 °F 87% 30.12 in 7.0 mi NNE 8.1 mph - N/A   Overcast
9:55 PM 48.2 °F 44.6 °F 87% 30.12 in 8.0 mi NE 8.1 mph - N/A   Overcast
10:15 PM 48.2 °F 44.6 °F 87% 30.13 in 5.0 mi NNE 8.1 mph - N/A   Overcast
10:35 PM 48.2 °F 46.4 °F 93% 30.13 in 5.0 mi NNE 5.8 mph - N/A   Overcast
10:55 PM 48.2 °F 44.6 °F 87% 30.14 in 7.0 mi NE 8.1 mph - N/A   Overcast
11:15 PM 48.2 °F 44.6 °F 87% 30.13 in 8.0 mi NE 5.8 mph - N/A   Overcast
11:35 PM 48.2 °F 44.6 °F 87% 30.12 in 9.0 mi ENE 6.9 mph - N/A   Overcast
11:55 PM 48.2 °F 44.6 °F 87% 30.14 in 9.0 mi NE 3.5 mph - N/A   Overcast